{"data":{"norad_id":51989,"intl_designator":"2022-025AK","name":"STARLINK-3642","alt_names":[],"object_type":"PAYLOAD","status":"ACTIVE","operator":null,"country":"US","launch_date":"2022-03-09","launch_site_code":"AFETR","launch_vehicle":null,"mission":null,"orbit_class":"UNKNOWN","rcs_meters":null,"size_class":null,"mass_kg":null,"dimensions":null,"purposes":["comms"],"wikipedia_slug":null,"has_3d_model":false,"image_url":null,"decayed_at":null,"tle_current":{"epoch":"2026-05-25T03:38:56.719968Z","epoch_age_seconds":55942,"freshness":"FRESH","line1":"1 51989U 22025AK  26145.15204537 -.00000430  00000+0 -89258-5 0  9993","line2":"2 51989  53.2144  55.8670 0001494 109.5656 250.5498 15.08843690232604","mean_motion":15.0884369,"eccentricity":0.0001494,"inclination_deg":53.2144,"raan_deg":55.867,"arg_perigee_deg":109.5656,"mean_anomaly_deg":250.5498,"bstar":-8.9258e-6,"rev_number":23260,"period_min":95.437321277461,"perigee_km":538.69858048824,"apogee_km":540.76563977835,"semimajor_km":6917.8691101333,"source":"CELESTRAK","updated_at":"2026-05-25T13:38:16.997156Z"}}}